Location: Northcutt
(34.7304°N, 84.4305°W)
Time: 10:06:54
(UTC+00:00)

A-11 Canister half - Pass Details

Date: 08 October 2022
Orbit: 1524 x 1685 km, 47.3° (Epoch: 30 November)

Event Time Altitude Azimuth Distance (km) Brightness Sun altitude
Rises 21:25:34 0° 276° (W) 4,671 12.6 20.3°
Reaches altitude 10° 21:28:55 10° 284° (WNW) 3,688 12.0 19.6°
Maximum altitude 21:37:28 39° 352° (N) 2,144 9.9 18.0°
Drops below altitude 10° 21:46:10 10° 59° (ENE) 3,743 10.5 16.3°
Sets 21:49:35 0° 67° (ENE) 4,748 10.9 15.7°
